User: anonymous   Login
Location: Chochol
(49.7771°N, 14.9780°E)
Time: 17:18:26
(UTC+00:00)
Language:

ERS-1 Rocket - Orbit

View from above orbital plane
View from above orbital plane
View from above satellite
View from above satellite

Ground track
Ground track

The orbit data is extracted from the following two-line orbital elements,

1 21610U 91050F   20185.10021862 -.00000011  00000-0  10244-4 0  9999
2 21610  98.4644 254.1791 0002874 190.4696 227.9151 14.40907364520239
Epoch (UTC): 03 July 2020 02:24:18
Eccentricity: 0.0002874
inclination: 98.4644°
perigee height: 753 km
apogee height: 757 km
right ascension of ascending node: 254.1791°
argument of perigee: 190.4696°
revolutions per day: 14.40907364
mean anomaly at epoch: 227.9151°
orbit number at epoch: 52023

The dashed part of the orbit path shows where the satellite is in the earth's shadow,  

DLR